Skip Page Navigation
NASA JPL Caltech
NASA Logo - Jet Propulsion Laboratory + View the NASA Portal
+ Near-Earth Object (NEO) Program
Search JPL
JPL Home Earth Solar System Stars & Galaxies Technology
JPL Solar System Dynamics
BODIES ORBITS EPHEMERIDES TOOLS PHYSICAL DATA DISCOVERY FAQ SITE MAP
JPL Small-Body Database Browser
Search: [ help ]  
293 Brasilia
Classification: Main-belt Asteroid          SPK-ID: 2000293
Ephemeris | Orbit Diagram | Orbital Elements | Physical Parameters | Discovery Circumstances | Close-Approach Data ]

[ show orbit diagram ]
Orbital Elements at Epoch 2457000.5 (2014-Dec-09.0) TDB
Reference: JPL 10 (heliocentric ecliptic J2000)
 Element Value Uncertainty (1-sigma)   Units 
e .1075849108084262 4.5831e-08  
a 2.861798940173619 2.1342e-08 AU
q 2.553912556443391 1.3368e-07 AU
i 15.58133159208336 6.9126e-06 deg
node 61.36043700250011 1.995e-05 deg
peri 87.07905674437912 3.6527e-05 deg
M 345.4768494345747 3.2484e-05 deg
tp 2457071.837098899575
(2015-Feb-18.33709890)
0.00015979 JED
period 1768.30471378474
4.84
1.9781e-05
5.416e-08
d
yr
n .2035848217751365 2.2774e-09 deg/d
Q 3.169685323903846 2.3638e-08 AU
  Orbit Determination Parameters
   # obs. used (total)      1128  
   data-arc span      38312 days (104.89 yr)  
   first obs. used      1909-04-20  
   last obs. used      2014-03-12  
   planetary ephem.      DE431  
   SB-pert. ephem.      SB431-BIG16  
   condition code      0  
   fit RMS      .49754  
   data source      ORB  
   producer      Otto Matic  
   solution date      2014-Jun-16 13:10:32  

Additional Information
 Earth MOID = 1.62403 AU 
 T_jup = 3.239 
[ show covariance matrix ]

Ephemeris | Orbit Diagram | Orbital Elements | Physical Parameters | Discovery Circumstances | Close-Approach Data ]

Physical Parameter Table
Parameter Symbol Value Units Sigma Reference Notes
absolute magnitude H 9.94 mag n/a IRAS-A-FPA-3-RDR-IMPS-V6.0 IRAS observations used: 31
diameter diameter 55.11 km 1.6 IRAS-A-FPA-3-RDR-IMPS-V6.0 IRAS observations used: 31
rotation period rot_per 8.17 h n/a Asteroid Lightcurve DataBase (Rev. 2014-Mar-01) Published Reference List:
[Oey, J. (2006) Minor Planet Bul. 33, 96-99.]
[Stephens, R.D. (2006) Minor Planet Bul. 33, 100-101.]
[Collaborative Asteroid Lightcurve Link (CALL) (2011) http://www.minorplanetobserver.com/DATA/submi ssions_results.htm]
geometric albedo albedo 0.0615   0.004 IRAS-A-FPA-3-RDR-IMPS-V6.0 IRAS observations used: 31
B-V BV .721 mag .010 EAR-A-5-DDR-UBV-MEAN-VALUES-V1.1 #obs=3; phase (min.=9.47, mean=10.28, max.=10.83) deg.
U-B UB .352 mag .036 EAR-A-5-DDR-UBV-MEAN-VALUES-V1.1 #obs=3; phase (min.=9.47, mean=10.28, max.=10.83) deg.
Tholen spectral type spec_T CX   n/a EAR-A-5-DDR-TAXONOMY-V4.0 used 2 color indices

293 Brasilia          Discovered 1890-May-20 by Charlois, A. at Nice
Reference: DISCOVERY.DBLast Updated: 2003-08-29

[ show close-approach data ]
Alternate Designations
 A909 HB 
Ephemeris | Orbit Diagram | Orbital Elements | Physical Parameters | Discovery Circumstances | Close-Approach Data ]
ABOUT SSD CREDITS/AWARDS PRIVACY/COPYRIGHT GLOSSARY LINKS
FirstGov 2014-Sep-17 13:30 UT
(server date/time)  
NASA Home Page
Site Manager:   Donald K. Yeomans
Webmaster  Alan B. Chamberlin